Location: Poughquag
(41.6090°N, 73.6820°W)
Time: 04:42:19
(UTC-04:00)

ISS - Visible Passes

Search period start: 24 March 2019 00:00
Search period end: 03 April 2019 00:00
Orbit: 408 x 411 km, 51.6° (Epoch: 24 March)

Date Brightness Start Highest point End Pass type
(mag) Time Alt. Az. Time Alt. Az. Time Alt. Az.
24 Mar -2.0 20:43:21 10° W 20:46:17 29° NNW 20:48:16 16° NNE visible
25 Mar -2.7 19:52:21 10° WSW 19:55:31 44° NNW 19:58:42 10° NE visible
25 Mar -1.1 21:30:35 10° NW 21:32:44 16° N 21:32:44 16° N visible
26 Mar -1.3 20:39:22 10° WNW 20:41:50 19° NNW 20:44:17 10° NNE visible
27 Mar -1.7 19:48:10 10° WNW 19:50:57 24° NNW 19:53:45 10° NE visible
27 Mar -1.1 21:26:29 10° NW 21:28:24 14° N 21:28:30 14° N visible
28 Mar -1.1 20:35:23 10° NW 20:37:25 15° N 20:39:28 10° NNE visible
28 Mar -0.2 22:12:35 10° NNW 22:12:39 10° NNW 22:12:39 10° NNW visible
29 Mar -1.3 19:44:10 10° WNW 19:46:27 17° NNW 19:48:45 10° NNE visible
29 Mar -1.3 21:21:54 10° NNW 21:23:59 16° N 21:23:59 16° N visible
30 Mar -1.2 20:31:05 10° NNW 20:33:01 14° N 20:34:57 10° NE visible
30 Mar -0.5 22:07:33 10° NW 22:08:02 13° NNW 22:08:02 13° NNW visible
31 Mar -1.7 21:16:57 10° NW 21:19:19 20° NNE 21:19:19 20° NNE visible
01 Apr -1.5 20:26:17 10° NNW 20:28:33 17° NNE 20:30:35 11° NE visible
01 Apr -0.8 22:02:28 10° NW 22:03:20 17° NW 22:03:20 17° NW visible
02 Apr -2.5 21:11:50 10° NW 21:14:37 32° NNE 21:14:37 32° NNE visible
